When you browse on this site, cookies collect data to enhance your experience and personalize the content and advertising you see.
Visit our Privacy Policy to learn more. By continuing to use the site, you agree to this use of cookies and data.
  • In Czech Republic
  • List of Countries
  • For 7 days
  • Water Temperature
  • Satellite Maps
  • Weather Map
  • Weather Widgets
  • user-avatar
    Login

    Hourly Weather Sydney

    Today, 24 January, Thursday

    Time Temperature Precipitation Wind Pressure Humidity
    00:00 +23°C° 0.3 mm 6 mps 761 mmHg 82%
    01:00 +23°C° 0.3 mm 5 mps 760 mmHg 83%
    02:00 +23°C° 0.1 mm 5 mps 760 mmHg 84%
    03:00 +23°C° 0.1 mm 5 mps 760 mmHg 85%
    04:00 +23°C° 0 mm 5 mps 760 mmHg 85%
    05:00 +23°C° 0 mm 5 mps 761 mmHg 85%
    06:00 +23°C° 0 mm 5 mps 761 mmHg 85%
    07:00 +23°C° 0 mm 5 mps 761 mmHg 85%
    08:00 +25°C° 0 mm 5 mps 761 mmHg 80%
    09:00 +26°C° 0 mm 5 mps 761 mmHg 75%
    10:00 +28°C° 0 mm 4 mps 761 mmHg 69%
    11:00 +28°C° 0 mm 4 mps 761 mmHg 70%
    12:00 +28°C° 0 mm 4 mps 761 mmHg 71%
    13:00 +28°C° 0 mm 4 mps 761 mmHg 71%
    14:00 +28°C° 0 mm 4 mps 760 mmHg 70%
    15:00 +29°C° 0 mm 4 mps 760 mmHg 68%
    16:00 +30°C° 0 mm 4 mps 759 mmHg 67%
    17:00 +29°C° 0 mm 4 mps 760 mmHg 73%
    18:00 +28°C° 0 mm 3 mps 760 mmHg 78%
    19:00 +26°C° 0 mm 3 mps 760 mmHg 84%
    20:00 +26°C° 0 mm 2 mps 760 mmHg 87%
    21:00 +26°C° 0 mm 2 mps 761 mmHg 89%
    22:00 +25°C° 0 mm 1 mps 761 mmHg 91%
    23:00 +25°C° 0 mm 1 mps 761 mmHg 92%

    Tomorrow, 25 January, Friday

    Time Temperature Precipitation Wind Pressure Humidity
    00:00 +25°C° 0 mm 1 mps 761 mmHg 92%
    01:00 +23°C° 0 mm 0 mps 760 mmHg 92%
    02:00 +23°C° 0 mm 0 mps 760 mmHg 92%
    03:00 +23°C° 0 mm 0 mps 760 mmHg 92%
    04:00 +23°C° 0 mm 0 mps 759 mmHg 92%
    05:00 +26°C° 0 mm 1 mps 759 mmHg 89%
    06:00 +26°C° 0 mm 1 mps 760 mmHg 86%
    07:00 +27°C° 0 mm 2 mps 760 mmHg 83%
    08:00 +29°C° 0 mm 2 mps 759 mmHg 74%
    09:00 +30°C° 0 mm 3 mps 759 mmHg 65%
    10:00 +33°C° 0 mm 3 mps 759 mmHg 57%
    11:00 +34°C° 0 mm 4 mps 758 mmHg 53%
    12:00 +36°C° 0 mm 4 mps 758 mmHg 49%
    13:00 +37°C° 0 mm 5 mps 757 mmHg 46%
    14:00 +36°C° 0 mm 6 mps 757 mmHg 48%
    15:00 +36°C° 0 mm 6 mps 756 mmHg 51%
    16:00 +35°C° 0 mm 7 mps 756 mmHg 53%
    17:00 +34°C° 0 mm 7 mps 756 mmHg 59%
    18:00 +32°C° 0 mm 6 mps 756 mmHg 65%
    19:00 +30°C° 0 mm 6 mps 756 mmHg 71%
    20:00 +29°C° 0 mm 6 mps 756 mmHg 73%
    21:00 +29°C° 0 mm 5 mps 756 mmHg 74%
    22:00 +28°C° 0 mm 5 mps 757 mmHg 75%
    23:00 +28°C° 0 mm 4 mps 756 mmHg 77%

    Day after tomorrow, 26 January, Saturday

    Time Temperature Precipitation Wind Pressure Humidity
    00:00 +28°C° 0 mm 4 mps 756 mmHg 79%
    01:00 +27°C° 0 mm 3 mps 756 mmHg 80%
    02:00 +27°C° 0 mm 3 mps 755 mmHg 80%
    03:00 +27°C° 0 mm 3 mps 755 mmHg 80%
    04:00 +27°C° 0 mm 3 mps 755 mmHg 81%
    05:00 +28°C° 0 mm 3 mps 755 mmHg 74%
    06:00 +28°C° 0 mm 3 mps 756 mmHg 68%
    07:00 +29°C° 0 mm 3 mps 756 mmHg 62%
    08:00 +34°C° 0 mm 3 mps 756 mmHg 51%
    09:00 +37°C° 0 mm 2 mps 756 mmHg 41%
    10:00 +41°C° 0 mm 2 mps 756 mmHg 31%
    11:00 +42°C° 0 mm 3 mps 755 mmHg 30%
    12:00 +43°C° 0 mm 4 mps 755 mmHg 29%
    13:00 +45°C° 0 mm 5 mps 754 mmHg 28%
    14:00 +43°C° 0 mm 5 mps 754 mmHg 30%
    15:00 +42°C° 0 mm 6 mps 754 mmHg 33%
    16:00 +41°C° 0 mm 6 mps 753 mmHg 36%
    17:00 +39°C° 0 mm 6 mps 753 mmHg 42%
    18:00 +36°C° 0 mm 6 mps 753 mmHg 49%
    19:00 +34°C° 0 mm 6 mps 754 mmHg 56%
    20:00 +33°C° 0 mm 6 mps 754 mmHg 57%
    21:00 +33°C° 0 mm 6 mps 754 mmHg 58%
    22:00 +32°C° 0 mm 6 mps 755 mmHg 60%
    23:00 +32°C° 0 mm 5 mps 755 mmHg 62%

    27 January, Sunday

    Time Temperature Precipitation Wind Pressure Humidity
    00:00 +30°C° 0 mm 4 mps 755 mmHg 64%
    01:00 +30°C° 0 mm 3 mps 754 mmHg 67%
    02:00 +29°C° 0 mm 2 mps 754 mmHg 66%
    03:00 +29°C° 0 mm 2 mps 754 mmHg 66%
    04:00 +29°C° 0 mm 2 mps 754 mmHg 65%
    05:00 +30°C° 0 mm 1 mps 755 mmHg 63%
    06:00 +30°C° 0 mm 1 mps 755 mmHg 61%
    07:00 +29°C° 0 mm 0 mps 755 mmHg 59%
    08:00 +32°C° 0 mm 2 mps 755 mmHg 56%
    09:00 +35°C° 0 mm 3 mps 756 mmHg 53%
    10:00 +36°C° 0 mm 5 mps 756 mmHg 50%
    11:00 +35°C° 0 mm 5 mps 756 mmHg 52%
    12:00 +35°C° 0 mm 6 mps 755 mmHg 55%
    13:00 +34°C° 0 mm 6 mps 755 mmHg 57%
    14:00 +33°C° 0.1 mm 6 mps 755 mmHg 61%
    15:00 +33°C° 0.1 mm 6 mps 755 mmHg 64%
    16:00 +32°C° 0.1 mm 6 mps 755 mmHg 68%
    17:00 +29°C° 2.3 mm 6 mps 756 mmHg 74%
    18:00 +27°C° 2.3 mm 7 mps 756 mmHg 81%
    19:00 +26°C° 2.3 mm 7 mps 757 mmHg 88%
    20:00 +26°C° 1.1 mm 6 mps 758 mmHg 88%
    21:00 +25°C° 1.1 mm 5 mps 759 mmHg 89%
    22:00 +25°C° 1.1 mm 4 mps 759 mmHg 89%
    23:00 +25°C° 0.1 mm 4 mps 759 mmHg 89%

    28 January, Monday

    Time Temperature Precipitation Wind Pressure Humidity
    00:00 +25°C° 0.1 mm 4 mps 759 mmHg 89%
    01:00 +25°C° 0.1 mm 3 mps 759 mmHg 88%
    02:00 +25°C° 0 mm 3 mps 759 mmHg 88%
    03:00 +25°C° 0 mm 3 mps 759 mmHg 88%
    04:00 +25°C° 0 mm 3 mps 759 mmHg 88%
    05:00 +25°C° 0.2 mm 3 mps 759 mmHg 88%
    06:00 +25°C° 0.2 mm 3 mps 760 mmHg 87%
    07:00 +25°C° 0.2 mm 4 mps 760 mmHg 87%
    08:00 +27°C° 0 mm 3 mps 760 mmHg 80%
    09:00 +29°C° 0 mm 2 mps 760 mmHg 73%
    10:00 +30°C° 0 mm 1 mps 760 mmHg 66%
    11:00 +31°C° 0 mm 2 mps 759 mmHg 63%
    12:00 +33°C° 0 mm 3 mps 759 mmHg 61%
    13:00 +34°C° 0 mm 3 mps 758 mmHg 58%
    14:00 +33°C° 0 mm 4 mps 758 mmHg 63%
    15:00 +32°C° 0 mm 4 mps 758 mmHg 67%
    16:00 +30°C° 0 mm 4 mps 758 mmHg 72%
    17:00 +29°C° 0 mm 5 mps 758 mmHg 75%
    18:00 +29°C° 0 mm 5 mps 758 mmHg 77%
    19:00 +28°C° 0 mm 5 mps 759 mmHg 80%
    20:00 +28°C° 0.5 mm 4 mps 759 mmHg 80%
    21:00 +28°C° 0.5 mm 4 mps 759 mmHg 80%
    22:00 +28°C° 0.5 mm 3 mps 760 mmHg 80%
    23:00 +27°C° 0 mm 3 mps 759 mmHg 82%

    29 January, Tuesday

    Time Temperature Precipitation Wind Pressure Humidity
    00:00 +27°C° 0 mm 3 mps 759 mmHg 83%
    01:00 +27°C° 0 mm 3 mps 759 mmHg 84%
    02:00 +27°C° 0 mm 3 mps 759 mmHg 85%
    03:00 +26°C° 0 mm 3 mps 759 mmHg 87%
    04:00 +26°C° 0 mm 3 mps 759 mmHg 88%
    05:00 +27°C° 0 mm 2 mps 759 mmHg 86%
    06:00 +27°C° 0 mm 2 mps 759 mmHg 84%
    07:00 +28°C° 0 mm 2 mps 760 mmHg 82%
    08:00 +30°C° 0 mm 3 mps 760 mmHg 74%
    09:00 +33°C° 0 mm 3 mps 760 mmHg 65%
    10:00 +35°C° 0 mm 3 mps 759 mmHg 57%
    11:00 +35°C° 0 mm 4 mps 759 mmHg 53%
    12:00 +36°C° 0 mm 5 mps 759 mmHg 49%
    13:00 +38°C° 0 mm 6 mps 758 mmHg 46%
    14:00 +36°C° 0 mm 6 mps 758 mmHg 47%
    15:00 +36°C° 0 mm 6 mps 758 mmHg 48%
    16:00 +35°C° 0 mm 6 mps 758 mmHg 49%
    17:00 +33°C° 0.1 mm 5 mps 758 mmHg 57%
    18:00 +30°C° 0.1 mm 3 mps 759 mmHg 64%
    19:00 +29°C° 0.1 mm 2 mps 759 mmHg 72%
    20:00 +28°C° 0 mm 3 mps 760 mmHg 73%
    21:00 +28°C° 0 mm 3 mps 760 mmHg 74%
    22:00 +28°C° 0 mm 4 mps 760 mmHg 76%
    23:00 +27°C° 0 mm 4 mps 760 mmHg 77%
    Show more